Regional Weather Roundup
Issued by NWS

Home | Current Version | Previous Version | Text Only | Print | Product List | Glossary On
Versions: 1 2 3 4 5 6 7 8 9 10 11 12 13 14 15 16 17 18 19 20 21 22 23 24 25 26 27 28 29 30 31 32 33 34 35 36 37 38 39 40 41 42 43 44 45 46 47 48 49 50
000
ASUS43 KLSX 250159
RWRMO

WEATHER SUMMARY FOR MISSOURI
NATIONAL WEATHER SERVICE SPRINGFIELD MO
900 PM CDT THU JUL 24 2014

NOTE: "FAIR" INDICATES FEW OR NO CLOUDS BELOW 12,000 FEET WITH NO
       SIGNIFICANT WEATHER AND/OR OBSTRUCTIONS TO VISIBILITY.
       CURRENT SKY AND/OR WEATHER CONDITIONS ARE NOT AVAILABLE FOR
       CHILLICOTHE AND FARMINGTON.

MOZ001>031-035>038-043-044-053-054-250300-
...NORTHERN AND WESTERN MISSOURI...

CITY           SKY/WX    TMP DP  RH WIND       PRES   REMARKS
KANSAS CTY INT PTCLDY    76  59  55 SE14      30.02R
KANSAS C DTWN  CLEAR     78  58  49 E8        30.01R
LEE`S SUMMIT   CLEAR     72  60  66 E6        30.04R
ST JOSEPH      CLEAR     75  61  61 SE9       30.00S
CHILLICOTHE      N/A     74  59  59 S5        30.04F
KIRKSVILLE     MOCLDY    68  61  78 NE6       30.08R

$$
MOZ066>068-077>081-088>096-101>105-250300-
...SOUTHWEST MISSOURI...

CITY           SKY/WX    TMP DP  RH WIND       PRES   REMARKS
SPRINGFIELD    CLEAR     74  59  59 E8        30.04F
JOPLIN         CLEAR     80  63  55 SE5       30.01R

$$
MOZ032>034-039>042-045>050-055>058-069>072-250300-
...CENTRAL MISSOURI...

CITY           SKY/WX    TMP DP  RH WIND       PRES   REMARKS
COLUMBIA       CLEAR     69  58  67 NE7       30.07R
JEFFERSON CITY CLEAR     75  55  49 NE6       30.06R
ROLLA          PTCLDY    70  53  54 E6        30.05S
SEDALIA        CLEAR     73  58  59 E6        30.06R
OSAGE BEACH    CLEAR     72  57  60 E3        30.04S

$$
MOZ051-052-059>065-250300-
...EAST CENTRAL MISSOURI...

CITY           SKY/WX    TMP DP  RH WIND       PRES   REMARKS
ST LOUIS INTL  PTCLDY    75  52  44 NE5       30.05F
SPIRIT OF STL  PTCLDY    67  56  67 CALM      30.04F
ST CHARLES     PTCLDY    67  58  72 CALM      30.05F

$$
MOZ072>076-082>087-097>100-106>115-250300-
...SOUTH CENTRAL AND SOUTHEAST MISSOURI...

CITY           SKY/WX    TMP DP  RH WIND       PRES   REMARKS
CAPE GIRARDEAU CLEAR     70  62  76 CALM      30.05R
FARMINGTON     CLEAR     66  55  68 CALM      30.10S
POPLAR BLUFF   CLEAR     68  63  84 CALM      30.04R
WEST PLAINS    CLEAR     68  60  75 CALM      30.07F

$$



USA.gov is the U.S. government's official web portal to all federal, state and local government web resources and services.